This is the latest recevied weather packets stored in our database for station/object N5ATR. If no packets are shown the sender has not sent any weather packets the latest 10 day(s).
| Time | Temp. | Humidity | Pressure | Rain* | Wind** | Luminosity | Snow |
|---|---|---|---|---|---|---|---|
| 1788221814 | 15.56° C | 88% | 1023.1 hPa | 0 mm | - | 49 W/m² | - |
| 1788221509 | 15.56° C | 84% | 1023.4 hPa | 0 mm | - | 20 W/m² | - |
| 1788221204 | 15.56° C | 86% | 1023.6 hPa | 0 mm | - | 9 W/m² | - |
| 1788220900 | 16.11° C | 87% | 1023.6 hPa | 0 mm | - | 6 W/m² | - |
| 1788220598 | 16.67° C | 89% | 1024.1 hPa | 0 mm | - | 5 W/m² | - |
| 1788220294 | 16.67° C | 88% | 1024.2 hPa | 0 mm | - | 5 W/m² | - |
| 1788219993 | 16.67° C | 90% | 1023.8 hPa | 0 mm | - | 5 W/m² | - |
| 1788219689 | 16.67° C | 88% | 1023.3 hPa | 0 mm | - | 6 W/m² | - |
| 1788219384 | 16.67° C | 88% | 1022.9 hPa | 0 mm | - | 5 W/m² | - |
| 1788219080 | 16.67° C | 82% | 1024.1 hPa | 0 mm | - | 8 W/m² | - |
| 1788218775 | 16.67° C | 82% | 1023.9 hPa | 0 mm | - | 9 W/m² | - |
| 1788218470 | 17.22° C | 78% | 1023.4 hPa | 0 mm | - | 9 W/m² | - |
| 1788218167 | 20° C | 70% | 1023.5 hPa | 0 mm | - | 13 W/m² | - |
| 1788217876 | 21.11° C | 56% | 1023.1 hPa | 0 mm | - | 14 W/m² | - |
| 1788217558 | 21.67° C | 52% | 1023 hPa | 0 mm | - | 15 W/m² | - |
| 1788217257 | 23.33° C | 48% | 1022.3 hPa | 0 mm | - | 25 W/m² | - |
| 1788216960 | 23.89° C | 47% | 1022.4 hPa | 0 mm | - | 39 W/m² | - |
| 1788216647 | 23.89° C | 46% | 1022.4 hPa | 0 mm | - | 46 W/m² | - |
| 1788216343 | 23.89° C | 46% | 1022.4 hPa | 0 mm | - | 48 W/m² | - |
| 1788216038 | 24.44° C | 45% | 1022.2 hPa | 0 mm | - | 53 W/m² | - |
| 1788215733 | 24.44° C | 43% | 1022.2 hPa | 0 mm | - | 83 W/m² | - |
| 1788215429 | 25° C | 41% | 1022.2 hPa | 0 mm | - | 97 W/m² | - |
| 1788215125 | 25° C | 41% | 1022.3 hPa | 0 mm | - | 85 W/m² | - |
| 1788214825 | 25.56° C | 39% | 1021.9 hPa | 0 mm | - | 117 W/m² | - |
| 1788214521 | 25.56° C | 40% | 1022.2 hPa | 0 mm | - | 93 W/m² | - |
* Rain latest hour (hover to see other rain measurements)
** Current wind speed in m/s (hover to see current wind gust speed)